Miscellaneous Local Product
Issued by NWS Hastings, NE

Home | Current Version | Previous Version | Graphics & Text | Print | Product List | Glossary On
Versions: 1 2 3 4 5 6 7 8 9 10 11 12 13 14 15 16 17 18 19 20 21 22 23 24 25 26 27 28 29 30 31 32 33 34 35 36 37 38 39 40 41 42 43 44 45 46 47 48 49 50
000
AXUS43 KGID 171502
MISGRI

GID CWA HOURLY WEATHER ROUNDUP
NATIONAL WEATHER SERVICE HASTINGS NE
1000 AM CDT WED SEP 17 2014

NOTE: "FAIR" INDICATES FEW OR NO CLOUDS BELOW 12,000 FEET WITH NO
SIGNIFICANT WEATHER AND/OR OBSTRUCTIONS TO VISIBILITY.

...SOUTH CENTRAL NEBRASKA...

CITY           SKY/WX    TMP DP  RH WIND       PRES   REMARKS
GRAND ISLAND   SUNNY     62  53  72 VRB3      29.95R
HASTINGS       SUNNY     62  53  72 NE6       29.93S
KEARNEY        SUNNY     59  55  88 NE5       29.94S
ORD            SUNNY     59  56  89 CALM      29.93S
YORK           SUNNY     61  57  88 NE3       29.94S
AURORA         SUNNY     60  54  81 NE3       29.93S
LEXINGTON      SUNNY     56  55  97 CALM      29.94S
HOLDREGE       SUNNY     60  55  83 CALM      29.93S
HEBRON         CLOUDY    63  61  94 CALM      29.93S FOG

...NEBRASKA PANHANDLE...

CITY           SKY/WX    TMP DP  RH WIND       PRES   REMARKS
CHADRON        SUNNY     62  50  64 W5        29.98R
ALLIANCE       SUNNY     62  48  60 NW6       29.99S
SCOTTSBLUFF    SUNNY     64  49  57 NW10      30.01S
SIDNEY         SUNNY     66  44  45 NW12      30.03R

...WESTERN AND NORTH CENTRAL NEBRASKA...

CITY           SKY/WX    TMP DP  RH WIND       PRES   REMARKS
VALENTINE      MOSUNNY   64  55  72 CALM      29.94R
AINSWORTH      MOSUNNY   64  60  85 CALM      29.94S
ONEILL         SUNNY     62  60  94 CALM      29.93S
BROKEN BOW     MOSUNNY   65  60  84 CALM      29.93F
IMPERIAL       SUNNY     64  54  69 CALM      29.97F
NORTH PLATTE   FOG       55  54  96 CALM      29.95S VSB<1/4
MCCOOK         FOG       55  54  96 W6        29.97R VSB 1/2

...EASTERN NEBRASKA...

CITY           SKY/WX    TMP DP  RH WIND       PRES   REMARKS
NORFOLK        SUNNY     63  55  75 VRB3      29.93S
SO SIOUX CITY  SUNNY     64  55  72 S3        29.93F
TEKAMAH        SUNNY     65  56  72 S5        29.94R
ALBION         SUNNY     59  53  79 CALM      29.94S
OMAHA EPPLEY   MOSUNNY   65  56  72 S3        29.93F
OFFUTT AFB     SUNNY     66  63  91 SE5       29.93S
MILLARD        SUNNY     65  58  78 SE3       29.93S
LINCOLN        CLOUDY    61  58  90 CALM      29.94S FOG
NEBRASKA CITY  CLOUDY    63  57  80 SE6       29.95R
BEATRICE       CLOUDY    64  62  94 CALM      29.94R FOG
FALLS CITY     CLOUDY    64  62  93 E5        29.94R FOG

...NORTHERN KANSAS...

CITY           SKY/WX    TMP DP  RH WIND       PRES   REMARKS
GOODLAND       SUNNY     70  56  61 CALM      30.00R
HILL CITY      CLOUDY    59  57  93 NW3       29.95R
PHILLIPSBURG   MOSUNNY   61  57  88 CALM      29.94R
SMITH CENTER   CLOUDY    59  57  94 NE5       29.93S FOG
BELOIT         CLOUDY    63  63 100 NE5       29.91R VSB 1/2
HAYS           SUNNY     66  57  72 NW3       29.92S
RUSSELL        SUNNY     69  63  81 N6        29.90S
CONCORDIA      CLOUDY    64  64 100 NE7       29.92S FOG
SALINA         SUNNY     75  67  76 NW5       29.91R
TOPEKA         CLOUDY    68  67  96 CALM      29.93R FOG



USA.gov is the U.S. government's official web portal to all federal, state and local government web resources and services.